Location: Chagrin Falls Park
(41.4139°N, 81.3865°W)
Time: 08:06:48
(UTC+00:00)

X-37B - Pass Details

Date: 05 August 2021
Orbit: 381 x 393 km, 45.0° (Epoch: 29 August)

Event Time Altitude Azimuth Distance (km) Brightness Sun altitude
Exits shadow 09:01:51 20° 281° (W) 952 2.2 -14.1°
Maximum altitude 09:03:45 49° 349° (N) 502 1.3 -13.9°
Drops below altitude 10° 09:06:49 10° 66° (ENE) 1,398 4.7 -13.4°
Sets 09:08:56 0° 72° (ENE) 2,253 5.9 -13.1°
